DateTime,T1,T2
2017-06-19 05:41:00,1.05,-80.23
2017-06-19 05:41:30,1.05,-80.2
2017-06-19 05:42:00,1.1,-80.21
2017-06-19 05:42:30,1.05,-80.23
2017-06-19 05:43:00,1.05,-80.21
2017-06-19 05:43:30,1.05,-80.16
2017-06-19 05:44:00,1.05,-80.21
2017-06-19 05:44:30,1.05,-80.2
2017-06-19 05:45:01,1.05,-80.18
2017-06-19 05:45:30,1.15,-80.21
2017-06-19 05:46:00,1.15,-80.18
2017-06-19 05:46:30,1.15,-80.2
2017-06-19 05:47:00,1.15,-80.2
2017-06-19 05:47:30,1.1,-80.2
2017-06-19 05:48:00,1.01,-80.21
2017-06-19 05:48:30,1.05,-80.23
2017-06-19 05:49:00,1.05,-80.23
2017-06-19 05:49:30,1.05,-80.23
2017-06-19 05:50:00,1.05,-80.14
2017-06-19 05:50:30,1.1,-80.23
2017-06-19 05:51:01,1.05,-80.21
2017-06-19 05:51:30,1.05,-80.23
2017-06-19 05:52:00,1.05,-80.23
2017-06-19 05:52:30,1.05,-80.23
2017-06-19 05:53:00,1.05,-80.2
2017-06-19 05:53:30,1.05,-80.21
2017-06-19 05:54:00,1.05,-80.23
2017-06-19 05:54:30,1.05,-80.21
2017-06-19 05:55:01,1.15,-80.2
2017-06-19 05:55:30,1.15,-80.21
2017-06-19 05:56:00,1.1,-80.23
2017-06-19 05:56:30,1.05,-80.2
2017-06-19 05:57:00,1.1,-80.21
2017-06-19 05:57:30,1.1,-80.2
2017-06-19 05:58:00,1.1,-80.21
2017-06-19 05:58:30,1.15,-80.21
2017-06-19 05:59:00,1.15,-80.21
2017-06-19 05:59:30,1.2,-80.2
2017-06-19 06:00:00,1.15,-80.21
2017-06-19 06:00:30,1.1,-80.21
2017-06-19 06:01:00,1.1,-80.23
2017-06-19 06:01:30,1.15,-80.21
2017-06-19 06:02:00,1.1,-80.23
2017-06-19 06:02:30,1.1,-80.16
2017-06-19 06:03:00,1.05,-80.18
2017-06-19 06:03:30,1.05,-80.23
2017-06-19 06:04:00,1.05,-80.21
2017-06-19 06:04:30,1.05,-80.21
2017-06-19 06:05:01,1.1,-80.23
2017-06-19 06:05:30,1.15,-80.23
2017-06-19 06:06:00,1.15,-80.21
2017-06-19 06:06:30,1.15,-80.23
2017-06-19 06:07:00,1.05,-80.21
2017-06-19 06:07:30,1.05,-80.21
2017-06-19 06:08:00,1.05,-80.25
2017-06-19 06:08:30,1.1,-80.21
2017-06-19 06:09:00,1.1,-80.21
2017-06-19 06:09:31,1.05,-80.21
2017-06-19 06:10:00,1.1,-80.21
2017-06-19 06:10:30,1.1,-80.21
2017-06-19 06:11:00,1.05,-80.23
2017-06-19 06:11:31,1.1,-80.2
2017-06-19 06:12:00,1.05,-80.21
2017-06-19 06:12:30,1.1,-80.21
2017-06-19 06:13:00,1.05,-80.18
2017-06-19 06:13:30,1.05,-80.21
2017-06-19 06:14:00,1.05,-80.2
2017-06-19 06:14:30,1.1,-80.2
2017-06-19 06:15:01,1.05,-80.21
2017-06-19 06:15:30,1.1,-80.23
2017-06-19 06:16:00,1.05,-80.2
2017-06-19 06:16:30,1.05,-80.21
2017-06-19 06:17:00,1.05,-80.2
2017-06-19 06:17:30,1.05,-80.23
2017-06-19 06:18:00,1.05,-80.16
2017-06-19 06:18:30,1.1,-80.2
2017-06-19 06:19:00,1.1,-80.18
2017-06-19 06:19:30,1.15,-80.2
2017-06-19 06:20:00,1.15,-80.21
2017-06-19 06:20:30,1.15,-80.21
2017-06-19 06:21:00,1.15,-80.2
2017-06-19 06:21:30,1.15,-80.2
2017-06-19 06:22:00,1.1,-80.2
2017-06-19 06:22:30,1.1,-80.2
2017-06-19 06:23:00,1.1,-80.2
2017-06-19 06:23:30,1.1,-80.18
2017-06-19 06:24:00,1.1,-80.2
2017-06-19 06:24:30,1.1,-80.2
2017-06-19 06:25:00,1.1,-80.21
2017-06-19 06:25:30,1.1,-80.2
2017-06-19 06:26:00,1.15,-80.18
2017-06-19 06:26:30,1.1,-80.16
2017-06-19 06:27:00,1.1,-80.12
2017-06-19 06:27:30,1.05,-80.2
2017-06-19 06:28:00,1.1,-80.2
2017-06-19 06:28:30,1.05,-80.16
2017-06-19 06:29:00,1.1,-80.16
2017-06-19 06:29:30,1.1,-80.16
2017-06-19 06:30:00,1.1,-80.16
2017-06-19 06:30:30,1.1,-80.18
2017-06-19 06:31:00,1.1,-80.18
2017-06-19 06:31:30,1.15,-80.18
2017-06-19 06:32:00,1.1,-80.18
2017-06-19 06:32:30,1.1,-80.16
2017-06-19 06:33:00,1.15,-80.1
2017-06-19 06:33:30,1.1,-80.2
2017-06-19 06:34:00,1.1,-80.16
2017-06-19 06:34:30,1.15,-80.1
2017-06-19 06:35:00,1.15,-80.16
2017-06-19 06:35:30,1.05,-80.16
2017-06-19 06:36:00,1.05,-80.18
2017-06-19 06:36:30,1.1,-80.16
2017-06-19 06:37:02,1.1,-80.2
2017-06-19 06:37:30,1.15,-80.18
2017-06-19 06:38:00,1.15,-80.16
2017-06-19 06:38:30,1.1,-80.16
2017-06-19 06:39:00,1.1,-80.16
2017-06-19 06:39:30,1.1,-80.16
2017-06-19 06:40:00,1.1,-80.18
2017-06-19 06:40:30,1.2,-80.2
2017-06-19 06:41:00,1.15,-80.2
2017-06-19 06:41:30,1.15,-80.18
2017-06-19 06:42:02,1.2,-80.18
2017-06-19 06:42:30,1.2,-80.1
2017-06-19 06:43:00,1.15,-80.18
2017-06-19 06:43:30,1.15,-80.18
2017-06-19 06:44:00,1.15,-80.08
2017-06-19 06:44:30,1.15,-80.16
2017-06-19 06:45:00,1.1,-80.16
2017-06-19 06:45:30,1.1,-80.18
2017-06-19 06:46:00,1.1,-80.2
2017-06-19 06:46:31,1.15,-80.18
2017-06-19 06:47:02,1.15,-80.18
2017-06-19 06:47:30,1.15,-80.18
2017-06-19 06:48:00,1.15,-80.18
2017-06-19 06:48:30,1.15,-80.18
2017-06-19 06:49:00,1.2,-80.2
2017-06-19 06:49:30,1.2,-80.2
2017-06-19 06:50:00,1.25,-80.18
2017-06-19 06:50:30,1.25,-80.2
2017-06-19 06:51:00,1.25,-80.16
2017-06-19 06:51:30,1.2,-80.16
2017-06-19 06:52:00,1.2,-80.18
2017-06-19 06:52:30,1.15,-80.16
2017-06-19 06:53:00,1.2,-80.16
2017-06-19 06:53:30,1.15,-80.16
2017-06-19 06:54:00,1.15,-80.16
2017-06-19 06:54:30,1.15,-80.18
2017-06-19 06:55:00,1.2,-80.18
2017-06-19 06:55:31,1.1,-80.16
2017-06-19 06:56:00,1.1,-80.16
2017-06-19 06:56:31,1.05,-80.16
2017-06-19 06:57:00,1.05,-80.16
2017-06-19 06:57:30,1.05,-80.18
2017-06-19 06:58:00,1.1,-80.16
2017-06-19 06:58:30,1.1,-80.16
2017-06-19 06:59:00,1.1,-80.16
2017-06-19 06:59:30,1.15,-80.16
2017-06-19 07:00:00,1.15,-80.18
2017-06-19 07:00:30,1.15,-80.16
2017-06-19 07:01:00,1.1,-80.16
2017-06-19 07:01:30,1.15,-80.16
2017-06-19 07:02:00,1.15,-80.18
2017-06-19 07:02:30,1.15,-80.16
2017-06-19 07:03:01,1.15,-80.16
2017-06-19 07:03:30,1.15,-80.16
2017-06-19 07:04:00,1.25,-80.16
2017-06-19 07:04:30,1.2,-80.18
2017-06-19 07:05:00,1.2,-80.16
2017-06-19 07:05:30,1.25,-80.14
2017-06-19 07:06:00,1.2,-80.18
2017-06-19 07:06:30,1.2,-80.2
2017-06-19 07:07:00,1.2,-80.18
2017-06-19 07:07:30,1.15,-80.18
2017-06-19 07:08:00,1.15,-80.16
2017-06-19 07:08:30,1.2,-80.18
2017-06-19 07:09:00,1.2,-80.16
2017-06-19 07:09:30,1.15,-80.14
2017-06-19 07:10:00,1.15,-80.14
2017-06-19 07:10:30,1.15,-80.16
2017-06-19 07:11:00,1.1,-80.16
2017-06-19 07:11:30,1.15,-80.16
2017-06-19 07:12:00,1.15,-80.12
2017-06-19 07:12:30,1.2,-80.14
2017-06-19 07:13:00,1.1,-80.18
2017-06-19 07:13:30,1.15,-80.16
2017-06-19 07:14:00,1.15,-80.16
2017-06-19 07:14:30,1.15,-80.14
2017-06-19 07:15:00,1.2,-80.18
2017-06-19 07:15:30,1.15,-80.14
2017-06-19 07:16:00,1.15,-80.16
2017-06-19 07:16:30,1.15,-80.14
2017-06-19 07:17:00,1.15,-80.12
2017-06-19 07:17:30,1.15,-80.18
2017-06-19 07:18:00,1.2,-80.14
2017-06-19 07:18:30,1.2,-80.16
2017-06-19 07:19:00,1.15,-80.14
2017-06-19 07:19:30,1.1,-80.16
2017-06-19 07:20:00,1.1,-80.14
2017-06-19 07:20:30,1.15,-80.12
2017-06-19 07:21:00,1.1,-80.14
2017-06-19 07:21:30,1.15,-80.12
2017-06-19 07:22:00,1.15,-80.14
2017-06-19 07:22:30,1.15,-80.14
2017-06-19 07:23:00,1.15,-80.14
2017-06-19 07:23:31,1.15,-80.12
2017-06-19 07:24:00,1.2,-80.14
2017-06-19 07:24:30,1.2,-80.12
2017-06-19 07:25:00,1.25,-80.14
2017-06-19 07:25:30,1.2,-80.12
2017-06-19 07:26:00,1.2,-80.12
2017-06-19 07:26:30,1.15,-80.16
2017-06-19 07:27:00,1.2,-80.08
2017-06-19 07:27:30,1.15,-80.1
2017-06-19 07:28:00,1.2,-80.12
2017-06-19 07:28:30,1.15,-80.1
2017-06-19 07:29:00,1.15,-80.12
2017-06-19 07:29:30,1.15,-80.14
2017-06-19 07:30:00,1.15,-80.14
2017-06-19 07:30:30,1.15,-80.12
2017-06-19 07:31:00,1.15,-80.12
2017-06-19 07:31:30,1.15,-80.1
2017-06-19 07:32:00,1.15,-80.12
2017-06-19 07:32:30,1.15,-80.12
2017-06-19 07:33:00,1.15,-80.12
2017-06-19 07:33:30,1.2,-80.14
2017-06-19 07:34:00,1.2,-80.1
2017-06-19 07:34:30,1.15,-80.12
2017-06-19 07:35:01,1.15,-80.1
2017-06-19 07:35:30,1.15,-80.12
2017-06-19 07:36:00,1.15,-80.12
2017-06-19 07:36:30,1.25,-80.1
2017-06-19 07:37:00,1.2,-80.1
2017-06-19 07:37:30,1.2,-80.12
2017-06-19 07:38:00,1.2,-80.14
2017-06-19 07:38:30,1.2,-80.1
2017-06-19 07:39:00,1.2,-80.12
2017-06-19 07:39:30,1.15,-80.12
2017-06-19 07:40:00,1.2,-80.12
2017-06-19 07:40:30,1.15,-80.12
2017-06-19 07:41:00,1.1,-80.12
2017-06-19 07:41:30,1.15,-80.08
2017-06-19 07:42:00,1.1,-80.1
2017-06-19 07:42:30,1.15,-80.1
2017-06-19 07:43:00,1.1,-80.14
2017-06-19 07:43:30,1.05,-80.14
2017-06-19 07:44:00,1.05,-80.12
2017-06-19 07:44:30,1.05,-80.1
2017-06-19 07:45:01,1.1,-80.12
2017-06-19 07:45:30,1.1,-80.12
2017-06-19 07:46:00,1.15,-80.12
2017-06-19 07:46:30,1.15,-80.1
2017-06-19 07:47:00,1.15,-80.12
2017-06-19 07:47:30,1.1,-80.12
2017-06-19 07:48:00,1.15,-80.12
2017-06-19 07:48:30,1.1,-80.1
2017-06-19 07:49:00,1.1,-80.12
2017-06-19 07:49:30,1.1,-80.08
2017-06-19 07:50:00,1.15,-80.1
2017-06-19 07:50:30,1.1,-80.08
2017-06-19 07:51:00,1.15,-80.08
2017-06-19 07:51:30,1.15,-80.12
2017-06-19 07:52:00,1.15,-80.08
2017-06-19 07:52:30,1.1,-80.08
2017-06-19 07:53:00,1.15,-80.1
2017-06-19 07:53:30,1.15,-80.1
2017-06-19 07:54:01,1.2,-80.1
2017-06-19 07:54:30,1.2,-80.1
2017-06-19 07:55:01,1.25,-80.06
2017-06-19 07:55:30,1.25,-80.08
2017-06-19 07:56:00,1.25,-80.08
2017-06-19 07:56:30,1.2,-80.08
2017-06-19 07:57:00,1.2,-80.08
2017-06-19 07:57:30,1.15,-80.1
2017-06-19 07:58:00,1.15,-80.1
2017-06-19 07:58:30,1.2,-80.08
2017-06-19 07:59:00,1.1,-80.1
2017-06-19 07:59:30,1.1,-80.08
2017-06-19 08:00:00,1.1,-80.08
2017-06-19 08:00:30,1.15,-80.1
2017-06-19 08:01:00,1.2,-80.06
2017-06-19 08:01:30,1.1,-80.06
2017-06-19 08:02:00,1.1,-80.1
2017-06-19 08:02:30,1.1,-80.08
2017-06-19 08:03:00,1.1,-80.1
2017-06-19 08:03:30,1.1,-80.08
2017-06-19 08:04:00,1.15,-80.08
2017-06-19 08:04:30,1.1,-80.08
2017-06-19 08:05:00,1.15,-80.08
2017-06-19 08:05:30,1.25,-80.08
2017-06-19 08:06:00,1.2,-80.12
2017-06-19 08:06:30,1.15,-80.08
2017-06-19 08:07:00,1.2,-80.06
2017-06-19 08:07:30,1.2,-80.06
2017-06-19 08:08:00,1.15,-80.08
2017-06-19 08:08:30,1.15,-80.1
2017-06-19 08:09:00,1.1,-80.08
2017-06-19 08:09:30,1.15,-80.08
2017-06-19 08:10:00,1.2,-80.08
2017-06-19 08:10:30,1.2,-80.1
2017-06-19 08:11:00,1.15,-80.04
2017-06-19 08:11:30,1.15,-80.1
2017-06-19 08:12:00,1.2,-80.08
2017-06-19 08:12:30,1.2,-80.1
2017-06-19 08:13:00,1.2,-80.08
2017-06-19 08:13:30,1.2,-80.08
2017-06-19 08:14:00,1.15,-80.12
2017-06-19 08:14:31,1.15,-80.08
2017-06-19 08:15:00,1.2,-80.1
2017-06-19 08:15:30,1.15,-80.1
2017-06-19 08:16:00,1.15,-80.12
2017-06-19 08:16:30,1.15,-80.12
2017-06-19 08:17:00,1.1,-80.12
2017-06-19 08:17:30,1.1,-80.1
2017-06-19 08:18:00,1.15,-80.08
2017-06-19 08:18:30,1.15,-80.1
2017-06-19 08:19:00,1.1,-80.12
2017-06-19 08:19:30,1.15,-80.1
2017-06-19 08:20:00,1.15,-80.1
2017-06-19 08:20:30,1.15,-80.14
2017-06-19 08:21:01,1.2,-80.16
2017-06-19 08:21:30,1.15,-80.12
2017-06-19 08:22:00,1.1,-80.04
2017-06-19 08:22:30,1.15,-80.12
2017-06-19 08:23:00,1.15,-80.06
2017-06-19 08:23:30,1.15,-80.12
2017-06-19 08:24:00,1.15,-80.14
2017-06-19 08:24:30,1.15,-80.08
2017-06-19 08:25:00,1.1,-80.14
2017-06-19 08:25:30,1.1,-80.14
2017-06-19 08:26:00,1.1,-80.12
2017-06-19 08:26:30,1.1,-80.12
2017-06-19 08:27:00,1.1,-80.16
2017-06-19 08:27:30,1.1,-80.14
2017-06-19 08:28:00,1.1,-80.16
2017-06-19 08:28:30,1.1,-80.14
2017-06-19 08:29:00,1.1,-80.16
2017-06-19 08:29:30,1.1,-80.16
2017-06-19 08:30:00,1.05,-80.14
2017-06-19 08:30:30,1.1,-80.14
2017-06-19 08:31:00,1.05,-80.14
2017-06-19 08:31:30,1.1,-80.14
2017-06-19 08:32:00,1.1,-80.16
2017-06-19 08:32:30,1.15,-80.14
2017-06-19 08:33:00,1.2,-80.16
2017-06-19 08:33:30,1.15,-80.16
2017-06-19 08:34:00,1.1,-80.14
2017-06-19 08:34:31,1.1,-80.16
2017-06-19 08:35:01,1.2,-80.16
2017-06-19 08:35:30,1.15,-80.16
2017-06-19 08:36:00,1.2,-80.12
2017-06-19 08:36:30,1.1,-80.14
2017-06-19 08:37:00,1.1,-80.16
2017-06-19 08:37:30,1.1,-80.16
2017-06-19 08:38:00,1.15,-80.14
2017-06-19 08:38:30,1.1,-80.14
2017-06-19 08:39:00,1.15,-80.12
2017-06-19 08:39:30,1.15,-80.16
2017-06-19 08:40:00,1.15,-80.12
2017-06-19 08:40:30,1.15,-80.16
2017-06-19 08:41:00,1.2,-80.14
2017-06-19 08:41:30,1.2,-80.16
2017-06-19 08:42:00,1.2,-80.12
2017-06-19 08:42:30,1.15,-80.16
2017-06-19 08:43:00,1.1,-80.16
2017-06-19 08:43:30,1.1,-80.14
2017-06-19 08:44:00,1.1,-80.16
2017-06-19 08:44:30,1.1,-80.14
2017-06-19 08:45:01,1.15,-80.14
2017-06-19 08:45:30,1.15,-80.14
2017-06-19 08:46:00,1.2,-80.14
2017-06-19 08:46:30,1.15,-80.06
2017-06-19 08:47:00,1.15,-80.16
2017-06-19 08:47:30,1.15,-80.14
2017-06-19 08:48:00,1.2,-80.14
2017-06-19 08:48:30,1.15,-80.14
2017-06-19 08:49:00,1.2,-80.14
2017-06-19 08:49:30,1.15,-80.12
2017-06-19 08:50:00,1.15,-80.12
2017-06-19 08:50:30,1.15,-80.12
2017-06-19 08:51:00,1.2,-80.12
2017-06-19 08:51:30,1.15,-80.14
2017-06-19 08:52:00,1.15,-80.14
2017-06-19 08:52:30,1.15,-80.12
2017-06-19 08:53:00,1.15,-80.12
2017-06-19 08:53:30,1.1,-80.12
2017-06-19 08:54:00,1.1,-80.14
2017-06-19 08:54:30,1.1,-80.12
2017-06-19 08:55:01,1.1,-80.16
2017-06-19 08:55:30,1.15,-80.12
2017-06-19 08:56:00,1.1,-80.16
2017-06-19 08:56:30,1.05,-80.14
2017-06-19 08:57:00,1.15,-80.14
2017-06-19 08:57:30,1.1,-80.14
2017-06-19 08:58:00,1.1,-80.12
2017-06-19 08:58:30,1.1,-80.12
2017-06-19 08:59:00,1.15,-80.12
2017-06-19 08:59:30,1.15,-80.14
2017-06-19 09:00:00,1.15,-80.14
2017-06-19 09:00:30,1.15,-80.14
2017-06-19 09:01:00,1.15,-80.16
2017-06-19 09:01:30,1.1,-80.14
2017-06-19 09:02:00,1.2,-80.14
2017-06-19 09:02:30,1.2,-80.12
2017-06-19 09:03:00,1.15,-80.16
2017-06-19 09:03:30,1.15,-80.12
2017-06-19 09:04:00,1.15,-80.16
2017-06-19 09:04:30,1.15,-80.14
2017-06-19 09:05:01,1.15,-80.16
2017-06-19 09:05:30,1.15,-80.12
2017-06-19 09:06:00,1.15,-80.16
2017-06-19 09:06:30,1.1,-80.16
2017-06-19 09:07:00,1.05,-80.14
2017-06-19 09:07:30,1.05,-80.14
2017-06-19 09:08:00,1.1,-80.14
2017-06-19 09:08:30,1.05,-80.16
2017-06-19 09:09:00,1.05,-80.16
2017-06-19 09:09:30,1.05,-80.16
2017-06-19 09:10:00,1.05,-80.16
2017-06-19 09:10:30,1.05,-80.16
2017-06-19 09:11:00,1.05,-80.16
2017-06-19 09:11:30,1.05,-80.16
2017-06-19 09:12:00,1.05,-80.16
2017-06-19 09:12:30,1.05,-80.14
2017-06-19 09:13:00,1.05,-80.16
2017-06-19 09:13:30,1.05,-80.16
2017-06-19 09:14:00,1.05,-80.16
2017-06-19 09:14:30,1.05,-80.18
2017-06-19 09:15:01,1.05,-80.14
2017-06-19 09:15:30,1.01,-80.18
2017-06-19 09:16:00,1.05,-80.18
2017-06-19 09:16:30,1.05,-80.2
2017-06-19 09:17:00,1.1,-80.2
2017-06-19 09:17:30,1.05,-80.2
2017-06-19 09:18:01,1.05,-80.18
2017-06-19 09:18:30,1.05,-80.2
2017-06-19 09:19:00,1.05,-80.2
2017-06-19 09:19:30,1.05,-80.2
2017-06-19 09:20:00,1.05,-80.2
2017-06-19 09:20:30,1.1,-80.2
2017-06-19 09:21:00,1.1,-80.21
2017-06-19 09:21:30,1.1,-80.21
2017-06-19 09:22:00,1.1,-80.21
2017-06-19 09:22:30,1.15,-80.2
2017-06-19 09:23:00,1.1,-80.2
2017-06-19 09:23:30,1.1,-80.2
2017-06-19 09:24:00,1.05,-80.16
2017-06-19 09:24:30,1.1,-80.2
2017-06-19 09:25:00,1.05,-80.2
2017-06-19 09:25:30,1.05,-80.2
2017-06-19 09:26:00,1.05,-80.21
2017-06-19 09:26:30,1.1,-80.21
2017-06-19 09:27:00,1.1,-80.23
2017-06-19 09:27:30,1.15,-80.2
2017-06-19 09:28:00,1.15,-80.21
2017-06-19 09:28:30,1.1,-80.18
2017-06-19 09:29:00,1.1,-80.16
2017-06-19 09:29:30,1.15,-80.2
2017-06-19 09:30:00,1.1,-80.21
2017-06-19 09:30:30,1.15,-80.18
2017-06-19 09:31:00,1.15,-80.21
2017-06-19 09:31:30,1.1,-80.16
2017-06-19 09:32:00,1.1,-80.2
2017-06-19 09:32:30,1.15,-80.21
2017-06-19 09:33:00,1.1,-80.2
2017-06-19 09:33:30,1.1,-80.21
2017-06-19 09:34:00,1.1,-80.23
2017-06-19 09:34:30,1.1,-80.21
2017-06-19 09:35:00,1.1,-80.23
2017-06-19 09:35:30,1.1,-80.21
2017-06-19 09:36:00,1.1,-80.21
2017-06-19 09:36:30,1.05,-80.21
2017-06-19 09:37:00,1.1,-80.2
2017-06-19 09:37:30,1.1,-80.23
2017-06-19 09:38:00,1.15,-80.21
2017-06-19 09:38:30,1.1,-80.23
2017-06-19 09:39:00,1.15,-80.21
2017-06-19 09:39:30,1.1,-80.2
2017-06-19 09:40:00,1.05,-80.25
2017-06-19 09:40:30,1.05,-80.21
2017-06-19 09:41:00,1.05,-80.21
2017-06-19 09:41:30,1.05,-80.23
2017-06-19 09:42:00,1.05,-80.23
2017-06-19 09:42:30,1.05,-80.25
2017-06-19 09:43:00,1.05,-80.23
2017-06-19 09:43:30,1.1,-80.25
2017-06-19 09:44:00,1.05,-80.27
2017-06-19 09:44:30,1.1,-80.23
2017-06-19 09:45:00,1.1,-80.25
2017-06-19 09:45:30,1.1,-80.23
2017-06-19 09:46:00,1.1,-80.23
2017-06-19 09:46:30,1.15,-80.23
2017-06-19 09:47:02,1.1,-80.23
2017-06-19 09:47:30,1.05,-80.25
2017-06-19 09:48:00,1.05,-80.23
2017-06-19 09:48:30,1.05,-80.23
2017-06-19 09:49:00,1.05,-80.23
2017-06-19 09:49:30,1.1,-80.25
2017-06-19 09:50:00,1.1,-80.23
2017-06-19 09:50:30,1.1,-80.21
2017-06-19 09:51:00,1.1,-80.21
2017-06-19 09:51:30,1.15,-80.23
2017-06-19 09:52:02,1.1,-80.21
2017-06-19 09:52:30,1.1,-80.21
2017-06-19 09:53:00,1.15,-80.25
2017-06-19 09:53:30,1.2,-80.21
2017-06-19 09:54:00,1.15,-80.21
2017-06-19 09:54:30,1.15,-80.2
2017-06-19 09:55:00,1.2,-80.23
2017-06-19 09:55:30,1.2,-80.2
2017-06-19 09:56:00,1.2,-80.2
2017-06-19 09:56:30,1.15,-80.21
2017-06-19 09:57:02,1.15,-80.18
2017-06-19 09:57:30,1.1,-80.23
2017-06-19 09:58:00,1.15,-80.16
2017-06-19 09:58:30,1.1,-80.2
2017-06-19 09:59:00,1.15,-80.2
2017-06-19 09:59:30,1.1,-80.21
2017-06-19 10:00:00,1.1,-80.18
2017-06-19 10:00:30,1.1,-80.2
2017-06-19 10:01:00,1.1,-80.2
2017-06-19 10:01:30,1.15,-80.16
2017-06-19 10:02:02,1.2,-80.12
2017-06-19 10:02:30,1.2,-80.18
2017-06-19 10:03:00,1.15,-80.2
2017-06-19 10:03:30,1.15,-80.18
2017-06-19 10:04:00,1.2,-80.18
2017-06-19 10:04:30,1.15,-80.18
2017-06-19 10:05:00,1.1,-80.18
2017-06-19 10:05:30,1.15,-80.18
2017-06-19 10:06:00,1.1,-80.18
2017-06-19 10:06:30,1.1,-80.16
2017-06-19 10:07:02,1.05,-80.16
2017-06-19 10:07:30,1.1,-80.2
2017-06-19 10:08:00,1.1,-80.14
2017-06-19 10:08:30,1.05,-80.16
2017-06-19 10:09:00,1.1,-80.16
2017-06-19 10:09:30,1.15,-80.16
2017-06-19 10:10:00,1.05,-80.2
2017-06-19 10:10:30,1.1,-80.2
2017-06-19 10:11:00,1.05,-80.16
2017-06-19 10:11:30,1.05,-80.2
2017-06-19 10:12:00,1.05,-80.16
2017-06-19 10:12:30,1.05,-80.2
2017-06-19 10:13:00,1.05,-80.16
2017-06-19 10:13:30,1.05,-80.12
2017-06-19 10:14:00,1.05,-80.2
2017-06-19 10:14:30,1.05,-80.2
2017-06-19 10:15:00,1.1,-80.2
2017-06-19 10:15:30,1.05,-80.2
2017-06-19 10:16:00,1.1,-80.2
2017-06-19 10:16:30,1.1,-80.2
2017-06-19 10:17:00,1.1,-80.21
2017-06-19 10:17:30,1.05,-80.18
2017-06-19 10:18:00,1.05,-80.21
2017-06-19 10:18:30,1.05,-80.2
2017-06-19 10:19:00,1.05,-80.2
2017-06-19 10:19:30,1.05,-80.2
2017-06-19 10:20:00,1.05,-80.2
2017-06-19 10:20:30,1.15,-80.18
2017-06-19 10:21:00,1.2,-80.2
2017-06-19 10:21:30,1.15,-80.2
2017-06-19 10:22:00,1.2,-80.2
2017-06-19 10:22:30,1.15,-80.18
2017-06-19 10:23:00,1.15,-80.2
2017-06-19 10:23:30,1.15,-80.2
2017-06-19 10:24:00,1.15,-80.2
2017-06-19 10:24:30,1.1,-80.18
2017-06-19 10:25:00,1.15,-80.16
2017-06-19 10:25:30,1.1,-80.21
2017-06-19 10:26:00,1.15,-80.18
2017-06-19 10:26:30,1.15,-80.2
2017-06-19 10:27:00,1.1,-80.2
2017-06-19 10:27:30,1.1,-80.2
2017-06-19 10:28:00,1.05,-80.21
2017-06-19 10:28:30,1.05,-80.2
2017-06-19 10:29:00,1.1,-80.2
2017-06-19 10:29:30,1.1,-80.21
2017-06-19 10:30:00,1.1,-80.2
2017-06-19 10:30:30,1.1,-80.2
2017-06-19 10:31:00,1.1,-80.23
2017-06-19 10:31:30,1.1,-80.2
2017-06-19 10:32:00,1.1,-80.21
2017-06-19 10:32:30,1.1,-80.23
2017-06-19 10:33:00,1.05,-80.23
2017-06-19 10:33:30,1.1,-80.23
2017-06-19 10:34:00,1.1,-80.2
2017-06-19 10:34:30,1.1,-80.21
2017-06-19 10:35:00,1.15,-80.25
2017-06-19 10:35:30,1.1,-80.23
2017-06-19 10:36:00,1.1,-80.25
2017-06-19 10:36:30,1.05,-80.25
2017-06-19 10:37:00,1.05,-80.23
2017-06-19 10:37:30,1.05,-80.25
2017-06-19 10:38:00,1.05,-80.27
2017-06-19 10:38:30,1.05,-80.25
2017-06-19 10:39:00,1.05,-80.25
2017-06-19 10:39:30,1.05,-80.23
2017-06-19 10:40:00,1.05,-80.23
2017-06-19 10:40:30,1.05,-80.23
2017-06-19 10:41:00,1.05,-80.16
2017-06-19 10:41:30,1.05,-80.25
2017-06-19 10:42:00,1.05,-80.2
2017-06-19 10:42:30,1.1,-80.25
2017-06-19 10:43:00,1.1,-80.25
2017-06-19 10:43:30,1.1,-80.23
2017-06-19 10:44:00,1.1,-80.25
2017-06-19 10:44:30,1.05,-80.23
2017-06-19 10:45:00,1.05,-80.23
2017-06-19 10:45:30,1.05,-80.25
2017-06-19 10:46:00,1.05,-80.25
2017-06-19 10:46:30,1.05,-80.23
2017-06-19 10:47:00,1.05,-80.25
2017-06-19 10:47:30,1.1,-80.25
2017-06-19 10:48:00,1.05,-80.23
2017-06-19 10:48:30,1.1,-80.25
2017-06-19 10:49:00,1.1,-80.25
2017-06-19 10:49:30,1.1,-80.27
2017-06-19 10:50:00,1.1,-80.25
2017-06-19 10:50:30,1.1,-80.25
2017-06-19 10:51:00,1.05,-80.25
2017-06-19 10:51:30,1.05,-80.25
2017-06-19 10:52:00,1.05,-80.27
2017-06-19 10:52:30,1.05,-80.23
2017-06-19 10:53:00,1.05,-80.27
2017-06-19 10:53:30,1.05,-80.25
2017-06-19 10:54:00,1.05,-80.25
2017-06-19 10:54:30,1.05,-80.25
2017-06-19 10:55:00,1.1,-80.25
2017-06-19 10:55:30,1.1,-80.23
2017-06-19 10:56:00,1.1,-80.23
2017-06-19 10:56:30,1.1,-80.23
2017-06-19 10:57:00,1.1,-80.23
2017-06-19 10:57:30,1.15,-80.25
2017-06-19 10:58:00,1.15,-80.23
2017-06-19 10:58:30,1.2,-80.23
2017-06-19 10:59:00,1.2,-80.23
2017-06-19 10:59:30,1.1,-80.27
2017-06-19 11:00:00,1.15,-80.23
2017-06-19 11:00:30,1.15,-80.23
2017-06-19 11:01:00,1.1,-80.23
2017-06-19 11:01:30,1.1,-80.25
2017-06-19 11:02:00,1.05,-80.27
2017-06-19 11:02:30,1.1,-80.25
2017-06-19 11:03:00,1.1,-80.23
2017-06-19 11:03:30,1.1,-80.25
2017-06-19 11:04:00,1.15,-80.25
2017-06-19 11:04:30,1.15,-80.23
2017-06-19 11:05:00,1.05,-80.21
2017-06-19 11:05:30,1.05,-80.25
2017-06-19 11:06:00,1.05,-80.23
2017-06-19 11:06:30,1.05,-80.23
2017-06-19 11:07:00,1.05,-80.27
2017-06-19 11:07:30,1.05,-80.27
2017-06-19 11:08:00,1.1,-80.23
2017-06-19 11:08:30,1.15,-80.25
2017-06-19 11:09:00,1.15,-80.25
2017-06-19 11:09:30,1.15,-80.23
2017-06-19 11:10:00,1.1,-80.27
2017-06-19 11:10:30,1.05,-80.25
2017-06-19 11:11:00,1.05,-80.27
2017-06-19 11:11:30,1.05,-80.27
2017-06-19 11:12:00,1.05,-80.27
2017-06-19 11:12:30,1.05,-80.27
2017-06-19 11:13:00,1.05,-80.27
2017-06-19 11:13:30,1.05,-80.25
2017-06-19 11:14:00,1.05,-80.23
2017-06-19 11:14:30,1.05,-80.27
2017-06-19 11:15:00,1.05,-80.29
2017-06-19 11:15:30,1.05,-80.25
2017-06-19 11:16:00,1.01,-80.27
2017-06-19 11:16:30,1.05,-80.27
2017-06-19 11:17:00,1.05,-80.31
2017-06-19 11:17:30,1.05,-80.29
2017-06-19 11:18:00,1.01,-80.31
2017-06-19 11:18:30,1.05,-80.27
2017-06-19 11:19:00,1.05,-80.27
2017-06-19 11:19:30,1.05,-80.27
2017-06-19 11:20:00,1.05,-80.29
2017-06-19 11:20:30,1.05,-80.31
2017-06-19 11:21:00,1.05,-80.29
2017-06-19 11:21:30,1.05,-80.31
2017-06-19 11:22:00,1.05,-80.27
2017-06-19 11:22:30,1.05,-80.31
2017-06-19 11:23:00,1.05,-80.31
2017-06-19 11:23:30,1.1,-80.31
2017-06-19 11:24:00,1.1,-80.29
2017-06-19 11:24:30,1.05,-80.29
2017-06-19 11:25:00,1.05,-80.27
2017-06-19 11:25:30,1.01,-80.31
2017-06-19 11:26:00,1.01,-80.29
2017-06-19 11:26:30,1.05,-80.31
2017-06-19 11:27:00,1.05,-80.27
2017-06-19 11:27:30,1.05,-80.29
2017-06-19 11:28:00,1.01,-80.27
2017-06-19 11:28:30,1.05,-80.29
2017-06-19 11:29:00,1.05,-80.29
2017-06-19 11:29:30,1.05,-80.29
2017-06-19 11:30:00,1.05,-80.31
2017-06-19 11:30:30,1.05,-80.31
2017-06-19 11:31:00,1.05,-80.29
2017-06-19 11:31:30,1.05,-80.29
2017-06-19 11:32:00,1.05,-80.31
2017-06-19 11:32:30,1.05,-80.29
2017-06-19 11:33:00,1.05,-80.27
2017-06-19 11:33:30,1.05,-80.29
2017-06-19 11:34:00,1.05,-80.29
2017-06-19 11:34:30,1.05,-80.29
2017-06-19 11:35:00,1.05,-80.29
2017-06-19 11:35:30,1.05,-80.29
2017-06-19 11:36:01,1.05,-80.29
2017-06-19 11:36:30,1.05,-80.29
2017-06-19 11:37:01,1.01,-80.27
2017-06-19 11:37:30,1.05,-80.29
2017-06-19 11:38:00,1.05,-80.29
2017-06-19 11:38:30,1.1,-80.27
2017-06-19 11:39:00,1.05,-80.29
2017-06-19 11:39:30,1.05,-80.25
2017-06-19 11:40:00,1.05,-80.27
2017-06-19 11:40:30,1.05,-80.27
2017-06-19 11:41:00,1.05,-80.29
2017-06-19 11:41:30,1.05,-80.23
2017-06-19 11:42:00,1.05,-80.27
2017-06-19 11:42:30,1.05,-80.27
2017-06-19 11:43:00,1.05,-80.27
2017-06-19 11:43:30,1.05,-80.25
2017-06-19 11:44:00,1.05,-80.27
2017-06-19 11:44:30,1.05,-80.27
2017-06-19 11:45:00,1.05,-80.27
2017-06-19 11:45:30,1.05,-80.29
2017-06-19 11:46:00,1.05,-80.23
2017-06-19 11:46:30,1.05,-80.27
2017-06-19 11:47:01,1.05,-80.27
2017-06-19 11:47:30,1.05,-80.27
2017-06-19 11:48:00,1.05,-80.29
2017-06-19 11:48:30,1.05,-80.29
2017-06-19 11:49:00,1.05,-80.27
2017-06-19 11:49:30,1.05,-80.27
2017-06-19 11:50:00,1.01,-80.27